Ahmedabad, India

10:44 AM IST on June 26, 2017 (GMT +0530)
Ahmedabad

Weather History for VAAH - April, 2014

Change the Weather History Date:

Tuesday, April 22, 2014

  Actual Average Record
Temperature  
Mean Temperature 91 °F -  
Max Temperature 105 °F 101 °F 107 °F (2011)
Min Temperature 77 °F 78 °F 75 °F (2008)
Cooling Degree Days 26    
Growing Degree Days 41 (Base 50)    
Moisture  
Dew Point 57 °F    
Average Humidity 26    
Maximum Humidity 46    
Minimum Humidity 12    
Precipitation  
Precipitation 0.00 in 0.02 in - ()
Sea Level Pressure  
Sea Level Pressure 29.83 in    
Wind  
Wind Speed 4 mph ()    
Max Wind Speed 10 mph    
Max Gust Speed -    
Visibility 2.8 miles    
Events      
Averages and records for this station are not official NWS values.
T = Trace of Precipitation, MM = Missing Value Source: Averaged Metar Reports

Daily Weather History Graph

Daily Weather History Graph

Search for Another Location

Airport or City:

Trip Planner

Search our weather history database for the weather conditions in past years. The results will help you decide how hot, cold, wet, or windy it might be!

Date:

Astronomy

Apr. 22, 2014 Rise Set
Actual Time 6:13 AM IST 7:03 PM IST
Civil Twilight 5:50 AM IST 7:26 PM IST
Nautical Twilight 5:22 AM IST 7:53 PM IST
Astronomical Twilight 4:55 AM IST 8:21 PM IST
Moon 12:51 AM IST (4/22) 12:22 PM IST (4/22)
Length of Visible Light 13h 36m
Length of Day
12h 49m
Waning Gibbous, 51% of the Moon is Illuminated
Apr 22
Waning Gibbous
Apr 22
Last Quarter
Apr 29
New
May 7
First Quarter
May 15
Full

Hourly Weather History & Observations

Time (IST) Temp. Heat Index Dew Point Humidity Pressure Visibility Wind Dir Wind Speed Gust Speed Precip Events Conditions
2:30 AM 82 °F - 64 °F 46% 29.82 in 2 mi NW 3.5 mph - -  
5:30 AM 81 °F - 61 °F 40% 29.85 in 2 mi NNW 4.6 mph - -   Smoke
8:30 AM 85 °F - 57 °F 28% 29.91 in 2 mi NE 4.6 mph - -  
10:10 AM 93.2 °F 91.9 °F 57.2 °F 30% 29.89 in 3.1 mi ENE 10.4 mph - N/A   Smoke
11:30 AM 95 °F - 58 °F 20% 29.91 in 2 mi NE 4.6 mph - -  
11:40 AM 98.6 °F 97.6 °F 57.2 °F 25% 29.89 in 3.7 mi NNE 8.1 mph - N/A   Unknown
12:10 PM 98.6 °F 97.6 °F 57.2 °F 25% 29.89 in 3.7 mi NE 5.8 mph - N/A   Unknown
12:40 PM 100.4 °F 100.2 °F 59.0 °F 25% 29.86 in 3.7 mi ENE 5.8 mph - N/A   Unknown
1:10 PM 102.2 °F 100.4 °F 53.6 °F 20% 29.86 in 3.7 mi North 5.8 mph - N/A   Unknown
2:10 PM 104.0 °F 102.3 °F 53.6 °F 19% 29.83 in 3.7 mi NNE 5.8 mph - N/A   Unknown
2:30 PM 101 °F - 53 °F 12% 29.84 in 2 mi NE 2.3 mph - -  
2:40 PM 104.0 °F - 51.8 °F 17% 29.80 in 3.7 mi ENE 4.6 mph - N/A   Unknown
3:40 PM 105.8 °F 104.3 °F 53.6 °F 18% 29.80 in 3.7 mi NNE 5.8 mph - N/A   Partly Cloudy
4:10 PM 105.8 °F 104.3 °F 53.6 °F 18% 29.77 in 3.7 mi NNE 4.6 mph - N/A   Partly Cloudy
4:40 PM 105.8 °F - 51.8 °F 17% 29.77 in 3.7 mi NE 4.6 mph - N/A   Partly Cloudy
5:10 PM 105.8 °F - 51.8 °F 17% 29.77 in 3.7 mi West 3.5 mph - N/A   Partly Cloudy
5:30 PM 101 °F - 54 °F 13% 29.79 in 2 mi NNW 2.3 mph - -   Scattered Clouds
5:40 PM 105.8 °F - 50.0 °F 15% 29.77 in 3.7 mi WNW 3.5 mph - N/A   Partly Cloudy
6:40 PM 102.2 °F 101.4 °F 57.2 °F 22% 29.77 in 2.5 mi North 2.3 mph - N/A   Smoke
7:10 PM - - - N/A% - - North - - N/A   Unknown
7:40 PM 98.6 °F 97.2 °F 55.4 °F 24% 29.80 in 2.5 mi Calm Calm - N/A   Smoke
8:10 PM 95.0 °F 93.0 °F 55.4 °F 26% 29.80 in 2.5 mi Calm Calm - N/A   Smoke
8:30 PM 87 °F - 67 °F 43% 29.82 in 2 mi Calm Calm - -   Scattered Clouds
8:40 PM 91.4 °F 90.7 °F 59.0 °F 34% 29.80 in 2.5 mi Calm Calm - N/A   Smoke
9:10 PM 91.4 °F 93.2 °F 64.4 °F 41% 29.83 in 2.5 mi Calm Calm - N/A   Smoke
9:40 PM 87.8 °F 89.4 °F 64.4 °F 46% 29.83 in 2.5 mi NE 2.3 mph - N/A   Smoke
10:10 PM 89.6 °F 88.9 °F 59.0 °F 36% 29.86 in 2.5 mi NNE 3.5 mph - N/A   Smoke
10:40 PM 89.6 °F 88.9 °F 59.0 °F 36% 29.86 in 2.5 mi North 3.5 mph - N/A   Smoke
11:10 PM 89.6 °F 87.7 °F 55.4 °F 31% 29.86 in 2.5 mi NNE 4.6 mph - N/A   Smoke
11:30 PM 90 °F - 54 °F 20% 29.86 in 2 mi North 5.8 mph - -  
11:40 PM 89.6 °F 87.3 °F 53.6 °F 29% 29.86 in 2.5 mi NNE 3.5 mph - N/A   Smoke